[[{"header":{"parameterUnit":"m.s-1","parameterCategory":1,"la1":30.2991,"la2":30.254,"lo1":-89.0895,"lo2":-89.0444,"dy":0.0017,"dx":0.0017,"nx":28,"ny":28,"refTime":"2023-09-16T09:00:00:Z","depth":0,"parameterNumber":2,"parameterNumberName":"U-component_of_WINDS"},"data":[0,0,0,0,0,0,0,0,0,0,0,0,0,0,0,0,0,0,0,0,0,0,0,0,0,0,0,0,0,0,0,0,0,0,0,0,0,0,0,0,0,0,0,0,0,0,0,0,0,0,0,0,0,0,0,0,0,0,3.4578,3.4581,0,3.4831,3.4834,3.4837,3.4865,3.4863,3.486,3.4858,3.5122,3.5132,3.5141,0,0,0,0,0,0,0,0,0,0,0,0,0,3.4122,3.413,3.4578,3.4581,3.4585,3.4831,3.4834,3.4838,3.4866,3.4863,3.486,3.4857,3.5119,3.5131,3.5142,0,0,0,0,0,0,0,0,0,0,0,0,0,3.4342,3.4133,3.4578,3.4628,3.4635,3.483,3.4834,3.4839,3.4866,3.4863,3.4859,3.4855,3.5116,3.5129,3.5143,3.5307,0,0,3.5187,3.5193,0,0,0,0,0,0,0,0,3.4329,3.4359,3.4617,3.4625,3.4633,3.4813,3.477,3.4996,3.4867,3.4779,3.4858,3.4853,3.5023,3.5044,3.51,3.532,3.5331,3.5188,3.5196,3.5203,3.5207,0,0,0,0,0,0,0,3.4314,3.4348,3.4679,3.4621,3.4631,3.4639,3.4666,3.4813,3.492,3.4786,3.4789,3.4818,3.5026,3.5087,3.5107,3.5335,3.5187,3.52,3.5209,3.5214,3.5696,3.57,0,0,0,0,0,0,3.4289,3.4335,3.467,3.4686,3.4468,3.465,3.468,3.4759,3.4918,3.4938,3.4821,3.4818,3.5064,3.509,3.5116,3.5316,3.5202,3.5216,3.5224,3.5692,3.5697,3.5702,0,0,0,0,0,0,3.4279,3.4319,3.466,3.4511,3.4555,3.4662,3.475,3.4766,3.4826,3.4944,3.4964,3.4863,3.5062,3.5096,3.5258,3.5326,3.5222,3.5235,3.5687,3.5694,3.57,3.5718,0,0,0,0,0,0,3.4266,3.4315,3.4378,3.4512,3.4563,3.4798,3.4754,3.4774,3.485,3.4849,3.4989,3.5008,3.5062,3.5237,3.5272,3.5343,3.5246,3.5681,3.569,3.5698,3.5712,3.5724,3.5735,0,0,0,0,0,3.4249,3.4376,3.4381,3.4422,3.4645,3.4802,3.4831,3.4889,3.4855,3.492,3.4994,3.5004,3.5312,3.5253,3.5293,3.537,3.5678,3.5688,3.5697,3.5707,3.5722,3.5735,0,0,0,0,0,0,3.4251,3.4395,3.4403,3.4576,3.4676,3.4806,3.489,3.4904,3.5017,3.5012,3.508,3.5111,3.5269,3.5336,3.5268,3.5534,3.5491,3.551,3.5485,3.5501,3.5512,3.5493,3.5258,0,0,0,0,0,3.4271,3.4385,3.4505,3.4647,3.4696,3.4784,3.4855,3.4889,3.4997,3.504,3.5127,3.5232,3.5351,3.543,3.5547,3.572,3.575,3.5792,3.5804,3.5813,3.5828,3.5921,3.594,3.5734,3.5734,3.5734,0,0,3.4315,3.4407,3.4476,3.4649,3.4731,3.4847,3.482,3.4946,3.5033,3.506,3.5217,3.5283,3.5404,3.5571,3.565,3.5632,3.5891,3.5825,3.5831,3.5842,3.5933,3.5952,3.5969,3.574,3.5739,3.5738,0,0,3.4454,3.4536,3.4661,3.4741,3.4863,3.492,3.4949,3.5077,3.5121,3.5278,3.5299,3.5404,3.561,3.5694,3.5764,3.5927,3.5939,3.5964,3.6025,3.6114,3.613,3.6145,3.6202,3.6221,3.5978,3.5978,3.5978,0,3.4495,3.467,3.4724,3.4848,3.4922,3.4947,3.5073,3.515,3.5305,3.5356,3.5332,3.5588,3.5672,3.5857,3.5895,3.5952,3.5987,3.5949,3.6123,3.6139,3.6153,3.6208,3.6229,3.598,3.598,3.598,3.598,0,3.4712,3.4833,3.4919,3.5063,3.5147,3.5272,3.5345,3.5423,3.5449,3.5507,3.5665,3.5765,3.5901,3.5947,3.5976,3.6135,3.612,3.6109,3.6068,3.6174,3.6226,3.6248,3.5983,3.5982,3.5982,3.5981,0,0,3.4865,3.5032,3.5063,3.5126,3.526,3.5355,3.5479,3.5608,3.5673,3.5778,3.5883,3.6053,3.6042,3.6121,3.6158,3.6237,3.6356,3.6216,3.622,3.6237,3.6535,3.6542,3.6565,3.6363,3.6367,3.6371,3.6524,0,3.5019,3.5238,3.5287,3.5477,3.5588,3.5609,3.5717,3.581,3.5866,3.5969,3.6032,3.6151,3.6128,3.6175,3.6254,3.6325,3.6416,3.6314,3.6461,3.6466,3.6431,3.6593,3.6602,3.6742,3.6545,3.6548,3.6551,0,3.5229,3.5333,3.5532,3.5645,3.5693,3.5789,3.5909,3.6007,3.6111,3.6147,3.6231,3.6259,3.6387,3.6337,3.6514,3.6443,3.6506,3.6549,3.6556,3.6573,3.6516,3.6613,3.6789,3.6809,3.6584,3.6581,3.6579,0,3.5318,3.5508,3.5651,3.5705,3.5841,3.5907,3.5967,3.6068,3.6141,3.6245,3.6293,3.6412,3.6478,3.6569,3.6627,3.6586,3.6799,3.6755,3.6831,3.683,3.6877,3.6873,3.7064,3.6917,3.6916,3.6916,3.6916,0,3.5485,3.5606,3.5692,3.578,3.5914,3.5969,3.6101,3.6161,3.6249,3.6348,3.6375,3.6468,3.6539,3.6641,3.6688,3.6825,3.6855,3.6887,3.6898,3.6885,3.6881,3.6928,3.692,3.6922,3.692,3.6919,3.6918,0,3.5609,3.5672,3.5828,3.5941,3.5972,3.6066,3.6164,3.625,3.6304,3.6429,3.6461,3.6548,3.6669,3.6735,3.6888,3.6919,3.7072,3.7079,3.7036,3.7041,3.7113,3.7105,3.7342,3.7374,3.7205,3.7206,3.7208,0,3.5712,3.5804,3.5925,3.5992,3.6052,3.616,3.6233,3.6289,3.6363,3.6485,3.6556,3.6677,3.6778,3.697,3.7047,3.7163,3.7172,3.7246,3.719,3.7172,3.7171,3.7165,3.7173,3.7256,3.7258,3.7259,3.726,0,3.5887,3.5911,3.6014,3.6126,3.6211,3.6303,3.6394,3.6447,3.6518,3.66,3.6722,3.6799,3.6952,3.7072,3.7193,3.7255,3.7269,3.7276,3.73,3.7288,3.7259,3.7274,3.7063,3.7272,3.7271,3.727,3.7269,3.7269,3.6003,3.6084,3.618,3.6292,3.6365,3.6448,3.6532,3.6594,3.6696,3.6823,3.685,3.6978,3.7076,3.7239,3.7303,3.7404,3.739,3.7425,3.7434,3.7441,3.7443,3.7242,3.7427,3.7426,3.7426,3.7426,3.7426,0,3.6178,3.6239,3.6341,3.6465,3.6552,3.6553,3.6652,3.6726,3.6838,3.6926,3.7022,3.716,3.7275,3.7358,3.7475,3.7539,3.7548,3.7568,3.7564,3.7578,3.745,3.7417,3.7558,3.7558,3.7558,3.7558,3.7558,3.7558,3.628,3.6415,3.645,3.6622,3.6683,3.6806,3.6862,3.6938,3.7008,3.716,3.7254,3.7306,3.7392,3.7514,3.7618,3.7639,3.7681,3.77,3.7721,3.7601,3.7587,3.7574,3.7543,3.7708,3.7708,3.784,3.7842,3.7843]},{"header":{"parameterUnit":"m.s-1","parameterCategory":1,"la1":30.2991,"la2":30.254,"lo1":-89.0895,"lo2":-89.0444,"dy":0.0017,"dx":0.0017,"nx":28,"ny":28,"refTime":"2023-09-16T09:00:00:Z","depth":0,"parameterNumber":3,"parameterNumberName":"V-component_of_WINDS"},"data":[0,0,0,0,0,0,0,0,0,0,0,0,0,0,0,0,0,0,0,0,0,0,0,0,0,0,0,0,0,0,0,0,0,0,0,0,0,0,0,0,0,0,0,0,0,0,0,0,0,0,0,0,0,0,0,0,0,0,1.5944,1.5946,0,1.6175,1.6177,1.618,1.6149,1.6145,1.6141,1.6137,1.6385,1.6395,1.6405,0,0,0,0,0,0,0,0,0,0,0,0,0,1.5485,1.5494,1.5944,1.5947,1.5949,1.6174,1.6177,1.6181,1.6149,1.6145,1.614,1.6136,1.6382,1.6394,1.6406,0,0,0,0,0,0,0,0,0,0,0,0,0,1.5697,1.5497,1.5943,1.5961,1.5965,1.6174,1.6177,1.6181,1.615,1.6145,1.6139,1.6133,1.6378,1.6393,1.6408,1.6618,0,0,1.6455,1.6461,0,0,0,0,0,0,0,0,1.5685,1.5714,1.5955,1.596,1.5965,1.6127,1.6107,1.6328,1.6152,1.608,1.6137,1.6131,1.6305,1.6326,1.6382,1.6629,1.664,1.6456,1.6465,1.6472,1.6476,0,0,0,0,0,0,0,1.5671,1.5704,1.6035,1.5959,1.5965,1.596,1.5984,1.6148,1.6223,1.6086,1.6084,1.6111,1.6306,1.6367,1.6388,1.6643,1.6455,1.6469,1.6478,1.6484,1.7075,1.7081,0,0,0,0,0,0,1.565,1.5692,1.6028,1.6042,1.5807,1.5973,1.6,1.6081,1.622,1.6236,1.6116,1.6109,1.6344,1.637,1.6396,1.6653,1.6472,1.6486,1.6495,1.7069,1.7077,1.7084,0,0,0,0,0,0,1.564,1.568,1.6019,1.5867,1.5909,1.5987,1.6078,1.6088,1.6149,1.6243,1.6257,1.6164,1.6341,1.6375,1.6562,1.6661,1.6493,1.6507,1.7061,1.7071,1.708,1.7166,0,0,0,0,0,0,1.5627,1.5677,1.5755,1.5869,1.5918,1.6179,1.6084,1.6097,1.6174,1.6167,1.6292,1.6307,1.6339,1.6539,1.6577,1.6679,1.6519,1.7053,1.7066,1.7077,1.7155,1.7177,1.7197,0,0,0,0,0,1.5611,1.5773,1.576,1.58,1.6017,1.6184,1.6213,1.6242,1.6182,1.6264,1.6323,1.6303,1.6642,1.6559,1.6601,1.6709,1.7047,1.7062,1.7076,1.7145,1.7173,1.7196,0,0,0,0,0,0,1.5674,1.5788,1.5775,1.5977,1.6071,1.6178,1.6282,1.627,1.6386,1.6375,1.641,1.6438,1.6628,1.6687,1.6592,1.6919,1.6837,1.6861,1.6875,1.6902,1.6922,1.6907,1.6531,0,0,0,0,0,1.571,1.5833,1.5927,1.6097,1.6144,1.6205,1.6279,1.6293,1.6393,1.6433,1.6507,1.6608,1.6737,1.6822,1.6946,1.7161,1.7189,1.7256,1.7276,1.7293,1.7315,1.7435,1.7466,1.7132,1.7132,1.7132,0,0,1.5789,1.5866,1.5943,1.6112,1.6186,1.6316,1.6239,1.6379,1.6477,1.6456,1.6637,1.6694,1.6809,1.7011,1.7104,1.7066,1.7413,1.7312,1.7325,1.7338,1.7453,1.7485,1.7513,1.7142,1.714,1.7139,0,0,1.5999,1.6068,1.6218,1.6292,1.6404,1.6443,1.6478,1.6587,1.6624,1.6805,1.6791,1.6909,1.713,1.7213,1.7284,1.7522,1.7509,1.7561,1.7673,1.7789,1.7816,1.7839,1.7927,1.7958,1.7581,1.7582,1.7582,0,1.6084,1.6276,1.6297,1.6439,1.6515,1.6496,1.665,1.6722,1.687,1.6925,1.6878,1.7154,1.723,1.7452,1.751,1.7567,1.7611,1.755,1.7809,1.7833,1.7856,1.794,1.7973,1.7588,1.7587,1.7586,1.7586,0,1.6376,1.6509,1.6617,1.6757,1.6844,1.6991,1.7038,1.7124,1.7129,1.7173,1.7359,1.7448,1.759,1.7643,1.7651,1.7867,1.784,1.7801,1.772,1.7893,1.7973,1.8005,1.7596,1.7594,1.7592,1.7591,0,0,1.6638,1.6783,1.6823,1.6886,1.7006,1.7112,1.7258,1.7393,1.7468,1.7569,1.7695,1.7881,1.7845,1.7925,1.7942,1.8043,1.8229,1.7993,1.7996,1.8037,1.8475,1.8507,1.8543,1.8218,1.8225,1.823,1.8467,0,1.6862,1.7118,1.714,1.7372,1.7497,1.7479,1.7607,1.7696,1.7741,1.7855,1.7905,1.8038,1.7978,1.8027,1.8126,1.8186,1.8319,1.8168,1.8341,1.8347,1.8317,1.8585,1.8619,1.8839,1.8498,1.8503,1.8507,0,1.7159,1.7266,1.7509,1.7611,1.7664,1.7779,1.7904,1.8012,1.8113,1.8139,1.8226,1.8229,1.8382,1.8291,1.8505,1.8402,1.8473,1.8512,1.8522,1.8543,1.8441,1.8617,1.8909,1.8944,1.8556,1.8552,1.8548,0,1.7329,1.7534,1.7706,1.776,1.7882,1.7964,1.8019,1.8113,1.8193,1.8303,1.8355,1.8482,1.8554,1.8653,1.8691,1.862,1.8904,1.8815,1.8933,1.8932,1.8998,1.8994,1.931,1.9036,1.9036,1.9035,1.9035,0,1.7581,1.7731,1.7784,1.789,1.8059,1.8083,1.825,1.8301,1.8385,1.8503,1.8495,1.8607,1.8647,1.8767,1.8797,1.8971,1.9002,1.903,1.9037,1.9033,1.903,1.9084,1.9071,1.9044,1.9042,1.904,1.9039,0,1.7802,1.7842,1.8029,1.8128,1.8156,1.8277,1.8363,1.8467,1.8507,1.8657,1.8693,1.8759,1.8898,1.8944,1.9114,1.9134,1.9338,1.9329,1.9303,1.9305,1.9422,1.9412,1.9786,1.9838,1.9527,1.953,1.9532,0,1.7961,1.8076,1.8186,1.8263,1.832,1.8444,1.8524,1.8552,1.8636,1.8758,1.8849,1.8985,1.9097,1.9321,1.9386,1.9515,1.9513,1.9635,1.9533,1.9525,1.9519,1.9513,1.9526,1.9656,1.9659,1.9662,1.9664,0,1.8242,1.8255,1.8369,1.849,1.8585,1.8682,1.8777,1.8841,1.8882,1.8978,1.9118,1.9204,1.9375,1.9512,1.9643,1.9703,1.9693,1.9694,1.9729,1.9729,1.971,1.9725,1.936,1.9687,1.9685,1.9683,1.9682,1.9681,1.844,1.8541,1.8634,1.8761,1.8834,1.8921,1.9024,1.9075,1.9192,1.9331,1.934,1.9493,1.9591,1.9765,1.9831,1.9953,1.9919,1.9968,1.9982,1.9995,2.0005,1.9686,1.9977,1.9976,1.9975,1.9975,1.9974,0,1.8723,1.878,1.8896,1.9027,1.9127,1.9102,1.9204,1.9291,1.9425,1.9515,1.9623,1.9785,1.9917,1.999,2.0123,2.0206,2.0205,2.0241,2.0238,2.0252,2.0027,1.9985,2.024,2.024,2.024,2.024,2.024,2.024,1.8882,1.9053,1.9077,1.9284,1.9342,1.9489,1.955,1.9631,1.9703,1.9883,1.9992,2.0036,2.0121,2.0259,2.038,2.0398,2.0449,2.049,2.0505,2.0295,2.0268,2.0242,2.0203,2.0499,2.05,2.072,2.0722,2.0724]}]]